TimePDT,TemperatureF,Dew PointF,Humidity,Sea Level PressureIn,VisibilityMPH,Wind Direction,Wind SpeedMPH,Gust SpeedMPH,PrecipitationIn,Events,Conditions,WindDirDegrees,DateUTC
12:54 AM,-9999,-9999,N/A,-9999,-9999.0,NNW,3.5,-,N/A,,Clear,330,2013-05-14 07:54:00
1:54 AM,-9999,-9999,N/A,-9999,-9999.0,NNW,4.6,-,N/A,,Clear,330,2013-05-14 08:54:00
2:54 AM,-9999,-9999,N/A,-9999,-9999.0,WNW,4.6,-,N/A,,Clear,300,2013-05-14 09:54:00
3:23 AM,-9999,-9999,N/A,-9999,-9999.0,WNW,4.6,-,N/A,,Scattered Clouds,300,2013-05-14 10:23:00
3:33 AM,-9999,-9999,N/A,-9999,-9999.0,WNW,8.1,-,N/A,,Mostly Cloudy,300,2013-05-14 10:33:00
3:54 AM,-9999,-9999,N/A,-9999,-9999.0,NW,3.5,-,N/A,,Mostly Cloudy,320,2013-05-14 10:54:00
4:29 AM,-9999,-9999,N/A,-9999,-9999.0,NW,4.6,-,N/A,,Scattered Clouds,310,2013-05-14 11:29:00
4:54 AM,-9999,-9999,N/A,-9999,-9999.0,Calm,Calm,-,N/A,,Clear,0,2013-05-14 11:54:00
5:20 AM,-9999,-9999,N/A,-9999,-9999.0,Calm,Calm,-,N/A,,Scattered Clouds,0,2013-05-14 12:20:00
5:28 AM,59.0,51.8,77,29.92,7.0,Calm,Calm,-,N/A,,Mostly Cloudy,0,2013-05-14 12:28:00
5:54 AM,57.2,52.5,84,29.94,6.0,Calm,Calm,-,N/A,,Haze,0,2013-05-14 12:54:00
6:54 AM,58.1,53.2,84,29.96,6.0,WNW,5.8,-,N/A,,Haze,300,2013-05-14 13:54:00
7:54 AM,58.6,53.6,83,29.96,6.0,WNW,4.6,-,N/A,,Mostly Cloudy,300,2013-05-14 14:54:00
8:54 AM,60.6,53.2,77,29.97,6.0,Variable,4.6,-,N/A,,Haze,0,2013-05-14 15:54:00
9:07 AM,60.8,53.6,77,29.97,6.0,West,9.2,-,N/A,,Haze,260,2013-05-14 16:07:00
9:09 AM,59.0,53.6,82,29.97,7.0,West,10.4,-,N/A,,Partly Cloudy,270,2013-05-14 16:09:00
9:54 AM,61.9,54.3,76,29.99,7.0,West,13.8,-,N/A,,Scattered Clouds,260,2013-05-14 16:54:00
10:54 AM,62.1,55.0,78,29.99,7.0,West,12.7,-,N/A,,Partly Cloudy,260,2013-05-14 17:54:00
11:54 AM,63.1,55.4,76,29.99,7.0,WSW,15.0,-,N/A,,Partly Cloudy,250,2013-05-14 18:54:00
12:54 PM,63.9,55.9,75,29.99,7.0,WSW,18.4,23.0,N/A,,Clear,250,2013-05-14 19:54:00
1:54 PM,64.4,54.9,71,29.99,7.0,West,20.7,25.3,N/A,,Clear,280,2013-05-14 20:54:00
2:54 PM,66.6,55.2,67,29.97,7.0,West,16.1,26.5,N/A,,Partly Cloudy,280,2013-05-14 21:54:00
3:54 PM,66.6,55.6,68,29.95,7.0,West,19.6,23.0,N/A,,Clear,280,2013-05-14 22:54:00
4:54 PM,65.1,55.8,72,29.95,7.0,West,19.6,27.6,N/A,,Partly Cloudy,270,2013-05-14 23:54:00
5:54 PM,64.2,54.0,69,29.95,7.0,WNW,16.1,21.9,N/A,,Partly Cloudy,290,2013-05-15 00:54:00
6:54 PM,60.3,52.3,75,29.95,7.0,West,17.3,-,N/A,,Partly Cloudy,270,2013-05-15 01:54:00
7:54 PM,59.9,52.5,77,29.96,7.0,West,11.5,-,N/A,,Partly Cloudy,280,2013-05-15 02:54:00
8:54 PM,58.8,52.9,81,29.96,7.0,West,10.4,-,N/A,,Partly Cloudy,270,2013-05-15 03:54:00
9:54 PM,58.8,53.4,82,29.97,7.0,West,4.6,-,N/A,,Partly Cloudy,280,2013-05-15 04:54:00
10:54 PM,58.8,54.0,84,29.99,7.0,West,4.6,-,N/A,,Partly Cloudy,280,2013-05-15 05:54:00
11:54 PM,58.8,54.0,84,29.99,7.0,WNW,5.8,-,N/A,,Partly Cloudy,290,2013-05-15 06:54:00